[[{"header":{"parameterUnit":"m.s-1","parameterCategory":1,"la1":30.2991,"la2":30.254,"lo1":-89.0895,"lo2":-89.0444,"dy":0.0017,"dx":0.0017,"nx":28,"ny":28,"refTime":"2023-08-18T03:00:00:Z","depth":0,"parameterNumber":2,"parameterNumberName":"U-component_of_WINDS"},"data":[0,0,0,0,0,0,0,0,0,0,0,0,0,0,0,0,0,0,0,0,0,0,0,0,0,0,0,0,0,0,0,0,0,0,0,0,0,0,0,0,0,0,0,0,0,0,0,0,0,0,0,0,0,0,0,0,0,0,0.691,0.6911,0,0.7062,0.7064,0.7066,0.7058,0.7056,0.7053,0.7051,0.7216,0.7222,0.7229,0,0,0,0,0,0,0,0,0,0,0,0,0,0.6618,0.6623,0.6909,0.6911,0.6913,0.7062,0.7064,0.7066,0.7058,0.7056,0.7053,0.705,0.7214,0.7222,0.7229,0,0,0,0,0,0,0,0,0,0,0,0,0,0.6755,0.6625,0.6909,0.6927,0.693,0.7062,0.7064,0.7067,0.7059,0.7056,0.7052,0.7049,0.7212,0.7221,0.723,0.7357,0,0,0.726,0.7264,0,0,0,0,0,0,0,0,0.6747,0.6766,0.6922,0.6926,0.693,0.7037,0.7022,0.7164,0.706,0.701,0.7051,0.7047,0.716,0.7174,0.721,0.7364,0.7372,0.7261,0.7267,0.7271,0.7274,0,0,0,0,0,0,0,0.6738,0.6759,0.697,0.6925,0.6929,0.693,0.6946,0.7049,0.7102,0.7014,0.7014,0.7032,0.7161,0.7201,0.7214,0.7374,0.7261,0.7269,0.7275,0.7279,0.764,0.7644,0,0,0,0,0,0,0.6723,0.6751,0.6965,0.6975,0.6828,0.6938,0.6955,0.7006,0.7101,0.7112,0.7034,0.7031,0.7186,0.7202,0.7219,0.7374,0.7271,0.728,0.7285,0.7637,0.7641,0.7645,0,0,0,0,0,0,0.6717,0.6742,0.6959,0.6863,0.6891,0.6946,0.7004,0.7011,0.705,0.7116,0.7126,0.7064,0.7184,0.7206,0.7322,0.7379,0.7284,0.7293,0.7632,0.7638,0.7643,0.7683,0,0,0,0,0,0,0.6709,0.674,0.6787,0.6864,0.6896,0.7057,0.7007,0.7017,0.7066,0.7063,0.7147,0.7158,0.7183,0.7308,0.7332,0.7391,0.7301,0.7627,0.7635,0.7641,0.7677,0.7689,0.77,0,0,0,0,0,0.6698,0.6794,0.6789,0.6815,0.6955,0.706,0.7079,0.7103,0.7071,0.7119,0.7162,0.7155,0.7369,0.732,0.7347,0.741,0.7624,0.7633,0.7641,0.7672,0.7687,0.77,0,0,0,0,0,0,0.6725,0.6804,0.68,0.6923,0.6985,0.7059,0.7121,0.7119,0.7193,0.7187,0.7217,0.7237,0.7353,0.7393,0.7337,0.7537,0.7492,0.7507,0.7507,0.7522,0.7533,0.7521,0.7309,0,0,0,0,0,0.6745,0.6821,0.6887,0.699,0.702,0.7065,0.7112,0.7125,0.7192,0.7219,0.7269,0.7336,0.7418,0.7472,0.7552,0.7682,0.7701,0.7739,0.775,0.776,0.7772,0.7845,0.7862,0.7673,0.7673,0.7673,0,0,0.6787,0.684,0.6887,0.6996,0.7045,0.7126,0.7087,0.7175,0.7235,0.7233,0.7345,0.7385,0.7461,0.7585,0.7642,0.7622,0.7828,0.7771,0.7777,0.7785,0.7855,0.7873,0.7889,0.7679,0.7678,0.7677,0,0,0.6906,0.6953,0.7043,0.7093,0.7167,0.7196,0.7217,0.7292,0.7317,0.7429,0.7429,0.7503,0.7644,0.7699,0.7745,0.7883,0.788,0.7908,0.7969,0.804,0.8055,0.8068,0.8118,0.8136,0.792,0.7921,0.7921,0,0.695,0.7069,0.709,0.7178,0.7226,0.7224,0.7317,0.7365,0.7463,0.7498,0.7472,0.7649,0.77,0.7837,0.787,0.7908,0.7935,0.7899,0.805,0.8064,0.8077,0.8125,0.8144,0.7923,0.7923,0.7923,0.7923,0,0.712,0.7203,0.7267,0.7358,0.7414,0.7504,0.7541,0.7595,0.7604,0.7636,0.7752,0.7813,0.7904,0.7938,0.7948,0.8077,0.8062,0.8043,0.7999,0.8097,0.8143,0.8162,0.7928,0.7927,0.7926,0.7925,0,0,0.7261,0.7361,0.7385,0.7426,0.7507,0.7573,0.7663,0.775,0.7797,0.7864,0.7942,0.806,0.8043,0.8096,0.8112,0.8174,0.828,0.8148,0.8151,0.8171,0.8426,0.844,0.846,0.8278,0.8282,0.8285,0.842,0,0.7388,0.7545,0.7567,0.7707,0.7784,0.7783,0.7862,0.7922,0.7955,0.8027,0.8064,0.8148,0.8119,0.8151,0.8211,0.8254,0.8332,0.8245,0.8353,0.8356,0.8334,0.8484,0.8499,0.8624,0.8438,0.8441,0.8443,0,0.7558,0.7626,0.7773,0.7844,0.7877,0.7947,0.8029,0.8097,0.8166,0.8185,0.8243,0.8251,0.8347,0.8298,0.8431,0.8371,0.8417,0.8445,0.845,0.8462,0.8406,0.8501,0.8664,0.8683,0.8471,0.8469,0.8467,0,0.7646,0.7776,0.788,0.7916,0.8001,0.805,0.8088,0.8153,0.8203,0.8276,0.8309,0.8392,0.8438,0.8503,0.8535,0.8496,0.8666,0.862,0.8687,0.8686,0.8723,0.8721,0.8897,0.8752,0.8751,0.8751,0.8751,0,0.7786,0.7876,0.7921,0.7985,0.8087,0.8112,0.8212,0.8249,0.8307,0.838,0.8385,0.8454,0.8491,0.8567,0.8593,0.8699,0.872,0.874,0.8746,0.874,0.8737,0.877,0.8763,0.8756,0.8755,0.8754,0.8753,0,0.7902,0.7935,0.8049,0.8119,0.8139,0.8211,0.8272,0.8336,0.8367,0.846,0.8484,0.8534,0.8623,0.866,0.8771,0.8788,0.891,0.8909,0.8886,0.8888,0.8953,0.8946,0.9157,0.9186,0.9021,0.9023,0.9024,0,0.7989,0.8058,0.8135,0.8183,0.8222,0.83,0.8351,0.8378,0.8432,0.8514,0.8569,0.8656,0.8728,0.8871,0.8919,0.9003,0.9005,0.9073,0.9018,0.9009,0.9006,0.9002,0.9009,0.9083,0.9085,0.9086,0.9087,0,0.8141,0.8154,0.8226,0.8304,0.8364,0.8428,0.849,0.853,0.8567,0.8628,0.8717,0.8772,0.8883,0.8971,0.9058,0.91,0.9101,0.9104,0.9124,0.9119,0.9102,0.9112,0.8914,0.9099,0.9098,0.9097,0.9097,0.9096,0.8246,0.8307,0.837,0.845,0.8499,0.8557,0.862,0.8659,0.8733,0.8823,0.8836,0.8932,0.8999,0.9115,0.916,0.9237,0.922,0.9249,0.9257,0.9263,0.9267,0.9089,0.9253,0.9253,0.9252,0.9252,0.9252,0,0.8398,0.8438,0.8512,0.8597,0.8661,0.8653,0.8721,0.8776,0.8859,0.8921,0.899,0.9093,0.9179,0.9233,0.9319,0.937,0.9373,0.9392,0.9389,0.9398,0.9278,0.9252,0.9388,0.9388,0.9388,0.9388,0.9388,0.9388,0.8484,0.8587,0.8608,0.8736,0.8776,0.8868,0.8908,0.8962,0.9011,0.9124,0.9194,0.9228,0.9287,0.9377,0.9456,0.947,0.9501,0.9522,0.9535,0.9421,0.9407,0.9394,0.9369,0.9528,0.9529,0.9649,0.965,0.9651]},{"header":{"parameterUnit":"m.s-1","parameterCategory":1,"la1":30.2991,"la2":30.254,"lo1":-89.0895,"lo2":-89.0444,"dy":0.0017,"dx":0.0017,"nx":28,"ny":28,"refTime":"2023-08-18T03:00:00:Z","depth":0,"parameterNumber":3,"parameterNumberName":"V-component_of_WINDS"},"data":[0,0,0,0,0,0,0,0,0,0,0,0,0,0,0,0,0,0,0,0,0,0,0,0,0,0,0,0,0,0,0,0,0,0,0,0,0,0,0,0,0,0,0,0,0,0,0,0,0,0,0,0,0,0,0,0,0,0,3.5781,3.5782,0,3.5904,3.5906,3.5907,3.5839,3.5835,3.5832,3.5829,3.595,3.5957,3.5963,0,0,0,0,0,0,0,0,0,0,0,0,0,3.5478,3.5484,3.5781,3.5782,3.5784,3.5904,3.5906,3.5907,3.5839,3.5835,3.5831,3.5827,3.5948,3.5956,3.5964,0,0,0,0,0,0,0,0,0,0,0,0,0,3.5606,3.5486,3.578,3.5764,3.5764,3.5904,3.5906,3.5908,3.584,3.5835,3.583,3.5825,3.5946,3.5955,3.5965,3.6125,0,0,3.5994,3.5998,0,0,0,0,0,0,0,0,3.5599,3.5617,3.5765,3.5766,3.5766,3.5851,3.5843,3.5981,3.5841,3.5811,3.5829,3.5823,3.5921,3.5932,3.5967,3.6131,3.6136,3.5995,3.6001,3.6005,3.6007,0,0,0,0,0,0,0,3.559,3.5612,3.5829,3.5767,3.5768,3.5748,3.5761,3.5869,3.5893,3.5813,3.5809,3.5825,3.592,3.5958,3.5969,3.6138,3.5995,3.6003,3.6009,3.6013,3.6434,3.6439,0,0,0,0,0,0,3.5583,3.5605,3.5825,3.5833,3.5668,3.5758,3.5772,3.5829,3.5892,3.5896,3.5829,3.5821,3.5944,3.5958,3.5973,3.6161,3.6005,3.6014,3.6019,3.6429,3.6435,3.6441,0,0,0,0,0,0,3.5577,3.5604,3.582,3.5718,3.5744,3.5769,3.5833,3.5834,3.5871,3.5903,3.5906,3.5863,3.594,3.5959,3.6087,3.6164,3.6018,3.6027,3.6422,3.6431,3.6438,3.6541,0,0,0,0,0,0,3.5569,3.5602,3.5666,3.572,3.575,3.5935,3.5838,3.584,3.5888,3.5879,3.5936,3.5941,3.5938,3.6073,3.6096,3.6175,3.6034,3.6415,3.6426,3.6436,3.6531,3.6552,3.657,0,0,0,0,0,3.5558,3.569,3.5669,3.5696,3.583,3.594,3.5957,3.5952,3.5895,3.5957,3.5977,3.5939,3.6153,3.6087,3.6113,3.6195,3.641,3.6423,3.6435,3.6522,3.6548,3.657,0,0,0,0,0,0,3.5644,3.5697,3.5674,3.5828,3.588,3.5928,3.6007,3.598,3.6048,3.6037,3.6026,3.6039,3.6171,3.6196,3.6122,3.6351,3.6272,3.629,3.633,3.6354,3.6373,3.6364,3.6042,0,0,0,0,0,3.5681,3.5768,3.5809,3.594,3.5967,3.5983,3.6031,3.6022,3.6075,3.6096,3.6126,3.6176,3.6254,3.6306,3.638,3.6535,3.6543,3.6604,3.6623,3.6639,3.6654,3.6732,3.6758,3.6481,3.6481,3.6481,0,0,3.5758,3.5797,3.5853,3.5958,3.5998,3.6084,3.6002,3.6099,3.6162,3.611,3.6232,3.6255,3.631,3.6451,3.6514,3.6476,3.6732,3.6654,3.6667,3.6673,3.6747,3.6773,3.6797,3.649,3.6488,3.6487,0,0,3.5942,3.5983,3.6094,3.6135,3.6195,3.6204,3.623,3.6282,3.6295,3.6417,3.6378,3.6452,3.6589,3.6628,3.6666,3.686,3.6826,3.6885,3.6985,3.7062,3.7083,3.7103,3.7168,3.7192,3.69,3.69,3.69,0,3.6029,3.6161,3.6155,3.6254,3.6299,3.6256,3.6366,3.6405,3.6486,3.6517,3.6473,3.6639,3.6674,3.6821,3.6867,3.6901,3.6928,3.6878,3.7081,3.71,3.7118,3.718,3.7205,3.6907,3.6906,3.6905,3.6905,0,3.6263,3.6355,3.6438,3.6516,3.6571,3.6676,3.6681,3.6737,3.6723,3.6735,3.6856,3.6896,3.6975,3.7009,3.6997,3.7153,3.7127,3.7083,3.7003,3.7151,3.7209,3.7233,3.6916,3.6913,3.6912,3.691,0,0,3.6507,3.6578,3.6608,3.6641,3.6702,3.6772,3.6872,3.6949,3.6995,3.7051,3.7132,3.7246,3.7204,3.7247,3.7238,3.7306,3.7451,3.7252,3.7253,3.7284,3.7619,3.765,3.7678,3.7429,3.7434,3.7437,3.7613,0,3.6692,3.6868,3.6863,3.7026,3.7108,3.7066,3.7152,3.7197,3.7211,3.7279,3.7293,3.7372,3.7313,3.7338,3.7403,3.742,3.7517,3.7407,3.75,3.7504,3.7485,3.7709,3.7743,3.7908,3.7636,3.764,3.7643,0,3.6932,3.6995,3.7167,3.7211,3.7245,3.7323,3.7391,3.7459,3.7507,3.7511,3.7558,3.7537,3.7634,3.7553,3.7684,3.7609,3.7646,3.7659,3.7665,3.7672,3.7581,3.7718,3.7961,3.7984,3.7679,3.7676,3.7674,0,3.7087,3.7215,3.7333,3.7363,3.7419,3.7474,3.75,3.7543,3.7588,3.7647,3.7675,3.7745,3.7782,3.7835,3.7831,3.7773,3.7962,3.7882,3.7965,3.7965,3.8006,3.8003,3.8255,3.8035,3.8035,3.8034,3.8034,0,3.7293,3.7398,3.7403,3.7475,3.759,3.7581,3.7694,3.7714,3.7752,3.7824,3.7793,3.7861,3.7854,3.7921,3.7919,3.8025,3.8043,3.8046,3.8044,3.8048,3.8047,3.8071,3.8058,3.8041,3.8039,3.8038,3.8037,0,3.7485,3.7493,3.7618,3.766,3.7673,3.7755,3.7789,3.7856,3.7865,3.7957,3.7978,3.7992,3.8069,3.8071,3.816,3.8158,3.8287,3.8273,3.8271,3.8267,3.8349,3.834,3.8622,3.8657,3.8418,3.842,3.8422,0,3.7615,3.7695,3.7744,3.7791,3.782,3.7896,3.7941,3.7934,3.7982,3.804,3.8099,3.8173,3.8232,3.8357,3.8374,3.844,3.8426,3.852,3.8435,3.8435,3.8423,3.8417,3.8422,3.8536,3.8538,3.8541,3.8542,0,3.7843,3.7841,3.7909,3.7977,3.8032,3.8086,3.8135,3.8174,3.8172,3.8227,3.8306,3.8352,3.8441,3.8514,3.8578,3.86,3.857,3.8569,3.8591,3.8595,3.8588,3.8589,3.8312,3.8562,3.856,3.8559,3.8558,3.8557,3.8005,3.8072,3.8117,3.8191,3.8227,3.8273,3.8336,3.8352,3.8418,3.8491,3.8482,3.8569,3.861,3.8692,3.872,3.8786,3.8753,3.8786,3.8794,3.8801,3.8808,3.858,3.8798,3.8797,3.8796,3.8796,3.8796,0,3.8228,3.8254,3.8323,3.8392,3.8449,3.8417,3.8468,3.8518,3.8595,3.8637,3.8695,3.8782,3.8852,3.8872,3.8938,3.8986,3.8974,3.9004,3.8999,3.9003,3.8836,3.8809,3.9012,3.9012,3.9012,3.9012,3.9012,3.9012,3.8351,3.8461,3.8464,3.859,3.8614,3.8699,3.8731,3.8771,3.8803,3.8903,3.8961,3.8974,3.9006,3.9073,3.9134,3.9138,3.9162,3.9197,3.9195,3.9038,3.9016,3.8995,3.8969,3.9203,3.9203,3.9356,3.9358,3.9359]}]]